This is the latest recevied weather packets stored in our database for station/object KD0MAC. If no packets are shown the sender has not sent any weather packets the latest 10 day(s).
| Time | Temp. | Humidity | Pressure | Rain* | Wind** | Luminosity | Snow |
|---|---|---|---|---|---|---|---|
| 1788214630 | 35° C | 41% | 1013.5 hPa | 0 mm | - | 332 W/m² | - |
| 1788214329 | 34.44° C | 39% | 1013.5 hPa | 0 mm | - | 260 W/m² | - |
| 1788214030 | 35° C | 38% | 1013.5 hPa | 0 mm | - | 308 W/m² | - |
| 1788213730 | 34.44° C | 39% | 1013.9 hPa | 0 mm | - | 288 W/m² | - |
| 1788213431 | 33.89° C | 40% | 1013.9 hPa | 0 mm | - | 185 W/m² | - |
| 1788213129 | 34.44° C | 40% | 1013.9 hPa | 0 mm | - | 218 W/m² | - |
| 1788212829 | 35° C | 37% | 1013.9 hPa | 0 mm | - | 262 W/m² | - |
| 1788212530 | 35° C | 40% | 1014.2 hPa | 0 mm | - | 339 W/m² | - |
| 1788212229 | 35° C | 39% | 1014.2 hPa | 0 mm | - | 388 W/m² | - |
| 1788211930 | 35° C | 37% | 1014.2 hPa | 0 mm | - | 398 W/m² | - |
| 1788211629 | 35° C | 37% | 1014.2 hPa | 0 mm | - | 408 W/m² | - |
| 1788211330 | 34.44° C | 40% | 1014.2 hPa | 0 mm | - | 415 W/m² | - |
| 1788211030 | 35° C | 38% | 1014.6 hPa | 0 mm | - | 425 W/m² | - |
| 1788210729 | 33.89° C | 41% | 1014.6 hPa | 0 mm | - | 436 W/m² | - |
| 1788210430 | 35° C | 38% | 1014.6 hPa | 0 mm | - | 432 W/m² | - |
| 1788210130 | 35° C | 40% | 1014.6 hPa | 0 mm | - | 448 W/m² | - |
| 1788209830 | 34.44° C | 39% | 1014.6 hPa | 0 mm | - | 456 W/m² | - |
| 1788209530 | 34.44° C | 41% | 1014.6 hPa | 0 mm | - | 465 W/m² | - |
| 1788209229 | 34.44° C | 39% | 1014.9 hPa | 0 mm | - | 462 W/m² | - |
| 1788208957 | 33.89° C | 41% | 1014.9 hPa | 0 mm | - | 490 W/m² | - |
| 1788208629 | 33.89° C | 41% | 1014.9 hPa | 0 mm | - | 497 W/m² | - |
| 1788208329 | 34.44° C | 44% | 1014.9 hPa | 0 mm | - | 510 W/m² | - |
| 1788208029 | 34.44° C | 44% | 1014.9 hPa | 0 mm | - | 520 W/m² | - |
| 1788207732 | 33.89° C | 43% | 1014.9 hPa | 0 mm | - | 509 W/m² | - |
| 1788207430 | 34.44° C | 43% | 1015.2 hPa | 0 mm | - | 519 W/m² | - |
* Rain latest hour (hover to see other rain measurements)
** Current wind speed in m/s (hover to see current wind gust speed)